User: anonymous   Login
Location: Notre Dame Regional High School Observatory
(37.3056°N, 89.6097°W)
Time: 20:11:59
(UTC-05:00)
Language:

ATLAS 3B R/B - Orbit

View from above orbital plane
View from above orbital plane
View from above satellite
View from above satellite

Ground track
Ground track

The orbit data is extracted from the following two-line orbital elements,

1 28538U 05004B   15244.83087594 0.00000000  00000-0  00000-0 0    08
2 28538  63.8258 146.4684 0194000 221.4909 138.5091 13.43068352    06
Epoch (UTC): 01 September 2015 19:56:27
Eccentricity: 0.0194000
inclination: 63.8258°
perigee height: 953 km
apogee height: 1243 km
right ascension of ascending node: 146.4684°
argument of perigee: 221.4909°
revolutions per day: 13.43068352
mean anomaly at epoch: 138.5091°
orbit number at epoch: 0

The dashed part of the orbit path shows where the satellite is in the earth's shadow,  

DLR